H1 CPF 2 NER 2023 5 7 9 127 01 glonass134 H2 1407501 9134 40315 2023 5 7 0 0 0 2023 5 10 23 45 0 900 1 1 0 0 0 1 H9 10 0 60071 0.00000 0 -20322423.848 5299683.844 14435898.097 10 0 60071 900.00000 0 -21943148.239 5276976.528 11826727.668 10 0 60071 1800.00000 0 -23225769.627 5364809.494 8987061.834 10 0 60071 2700.00000 0 -24139127.294 5515294.440 5972142.628 10 0 60071 3600.00000 0 -24664270.702 5676302.155 2840706.383 10 0 60071 4500.00000 0 -24795165.992 5793908.711 -346171.940 10 0 60071 5400.00000 0 -24538873.949 5814928.922 -3526286.227 10 0 60071 6300.00000 0 -23915190.837 5689427.322 -6637533.166 10 0 60071 7200.00000 0 -22955766.928 5373097.473 -9619146.378 10 0 60071 8100.00000 0 -21702740.333 4829405.873 -12412904.337 10 0 60071 9000.00000 0 -20206944.879 4031406.962 -14964286.234 10 0 60071 9900.00000 0 -18525769.316 2963150.101 -17223551.236 10 0 60071 10800.00000 0 -16720760.063 1620617.311 -19146718.565 10 0 60071 11700.00000 0 -14855070.456 12151.118 -20696428.439 10 0 60071 12600.00000 0 -12990865.588 -1841645.925 -21842666.780 10 0 60071 13500.00000 0 -11186793.044 -3908535.625 -22563339.993 10 0 60071 14400.00000 0 -9495626.202 -6145765.638 -22844689.577 10 0 60071 15300.00000 0 -7962178.704 -8501640.134 -22681539.881 10 0 60071 16200.00000 0 -6621576.288 -10917473.029 -22077375.890 10 0 60071 17100.00000 0 -5497956.492 -13329841.387 -21044251.345 10 0 60071 18000.00000 0 -4603648.118 -15673044.446 -19602530.822 10 0 60071 18900.00000 0 -3938861.853 -17881665.739 -17780472.434 10 0 60071 19800.00000 0 -3491901.872 -19893131.959 -15613660.720 10 0 60071 20700.00000 0 -3239886.472 -21650162.926 -13144301.853 10 0 60071 21600.00000 0 -3149944.747 -23103012.057 -10420395.676 10 0 60071 22500.00000 0 -3180836.768 -24211405.685 -7494801.011 10 0 60071 23400.00000 0 -3284927.540 -24946102.516 -4424212.530 10 0 60071 24300.00000 0 -3410430.736 -25290010.176 -1268068.739 10 0 60071 25200.00000 0 -3503827.447 -25238814.222 1912588.348 10 0 60071 26100.00000 0 -3512358.370 -24801095.176 5056280.519 10 0 60071 27000.00000 0 -3386485.166 -23997929.908 8102266.188 10 0 60071 27900.00000 0 -3082218.294 -22861994.803 10991697.312 10 0 60071 28800.00000 0 -2563214.235 -21436208.283 13668739.424 10 0 60071 29700.00000 0 -1802554.632 -19771968.856 16081634.641 10 0 60071 30600.00000 0 -784132.802 -17927061.166 18183688.606 10 0 60071 31500.00000 0 496410.866 -15963315.905 19934163.572 10 0 60071 32400.00000 0 2031244.939 -13944119.319 21299061.558 10 0 60071 33300.00000 0 3800414.738 -11931874.206 22251783.166 10 0 60071 34200.00000 0 5772421.532 -9985516.370 22773649.659 10 0 60071 35100.00000 0 7905291.926 -8158188.503 22854277.985 10 0 60071 36000.00000 0 10148096.101 -6495167.311 22491800.775 10 0 60071 36900.00000 0 12442854.907 -5032129.837 21692925.723 10 0 60071 37800.00000 0 14726759.376 -3793831.363 20472831.486 10 0 60071 38700.00000 0 16934612.688 -2793250.711 18854899.996 10 0 60071 39600.00000 0 19001394.487 -2031239.760 16870288.121 10 0 60071 40500.00000 0 20864841.472 -1496693.066 14557344.753 10 0 60071 41400.00000 0 22467936.378 -1167231.720 11960882.636 10 0 60071 42300.00000 0 23761200.328 -1010373.697 9131317.518 10 0 60071 43200.00000 0 24704690.893 -985141.890 6123690.451 10 0 60071 44100.00000 0 25269620.012 -1044041.866 2996591.951 10 0 60071 45000.00000 0 25439521.546 -1135324.921 -188990.467 10 0 60071 45900.00000 0 25210917.299 -1205439.088 -3370877.764 10 0 60071 46800.00000 0 24593451.854 -1201562.093 -6486932.622 10 0 60071 47700.00000 0 23609489.531 -1074106.278 -9476294.176 10 0 60071 48600.00000 0 22293190.240 -779086.467 -12280587.841 10 0 60071 49500.00000 0 20689103.723 -280247.622 -14845084.371 10 0 60071 50400.00000 0 18850342.593 449140.279 -17119783.479 10 0 60071 51300.00000 0 16836412.789 1424898.110 -19060399.370 10 0 60071 52200.00000 0 14710794.541 2651024.044 -20629228.046 10 0 60071 53100.00000 0 12538377.327 4119289.812 -21795879.145 10 0 60071 54000.00000 0 10382857.881 5809363.814 -22537858.410 10 0 60071 54900.00000 0 8304211.171 7689455.455 -22840990.396 10 0 60071 55800.00000 0 6356340.344 9717452.756 -22699674.534 10 0 60071 56700.00000 0 4585003.193 11842504.581 -22116971.263 10 0 60071 57600.00000 0 3026100.262 14006980.251 -21104518.394 10 0 60071 58500.00000 0 1704393.837 16148723.848 -19682281.148 10 0 60071 59400.00000 0 632708.499 18203508.611 -17878142.436 10 0 60071 60300.00000 0 -188356.559 20107589.036 -15727342.766 10 0 60071 61200.00000 0 -770194.689 21800244.651 -13271781.854 10 0 60071 62100.00000 0 -1135451.334 23226210.320 -10559196.268 10 0 60071 63000.00000 0 -1316809.801 24337893.134 -7642229.547 10 0 60071 63900.00000 0 -1355356.405 25097284.977 -4577412.939 10 0 60071 64800.00000 0 -1298595.239 25477492.734 -1424076.284 10 0 60071 65700.00000 0 -1198196.903 25463824.145 1756790.404 10 0 60071 66600.00000 0 -1107576.110 25054385.397 4903703.411 10 0 60071 67500.00000 0 -1079399.781 24260166.854 7955858.364 10 0 60071 68400.00000 0 -1163129.762 23104614.211 10854288.373 10 0 60071 69300.00000 0 -1402702.658 21622703.015 13542986.334 10 0 60071 70200.00000 0 -1834443.500 19859554.818 15969971.166 10 0 60071 71100.00000 0 -2485300.369 17868651.649 18088278.875 10 0 60071 72000.00000 0 -3371473.983 15709721.689 19856860.635 10 0 60071 72900.00000 0 -4497500.308 13446382.324 21241371.656 10 0 60071 73800.00000 0 -5855825.844 11143636.567 22214836.394 10 0 60071 74700.00000 0 -7426895.358 8865324.957 22758177.562 10 0 60071 75600.00000 0 -9179750.937 6671637.026 22860598.560 10 0 60071 76500.00000 0 -11073120.406 4616784.369 22519811.186 10 0 60071 77400.00000 0 -13056952.817 2746931.194 21742102.965 10 0 60071 78300.00000 0 -15074340.100 1098468.155 20542241.074 10 0 60071 79200.00000 0 -17063747.398 -303298.392 18943212.630 10 0 60071 80100.00000 0 -18961461.074 -1444986.248 16975804.137 10 0 60071 81000.00000 0 -20704153.394 -2325470.233 14678026.008 10 0 60071 81900.00000 0 -22231456.995 -2955692.938 12094391.299 10 0 60071 82800.00000 0 -23488440.745 -3357960.270 9275061.126 10 0 60071 83700.00000 0 -24427881.768 -3564750.729 6274872.363 10 0 60071 84600.00000 0 -25012236.287 -3617088.454 3152266.230 10 0 60071 85500.00000 0 -25215224.002 -3562549.258 -31860.866 10 0 60072 0.00000 0 -25022957.009 -3452985.196 -3215360.445 10 0 60072 900.00000 0 -24434563.405 -3342065.837 -6336065.528 10 0 60072 1800.00000 0 -23462278.018 -3282743.009 -9333024.200 10 0 60072 2700.00000 0 -22130995.228 -3324748.965 -12147712.413 10 0 60072 3600.00000 0 -20477302.743 -3512236.989 -14725195.857 10 0 60072 4500.00000 0 -18548037.620 -3881666.913 -17015217.861 10 0 60072 5400.00000 0 -16398426.526 -4460027.281 -18973190.273 10 0 60072 6300.00000 0 -14089889.978 -5263470.897 -20561067.019 10 0 60072 7200.00000 0 -11687604.476 -6296422.317 -21748082.987 10 0 60072 8100.00000 0 -9257926.248 -7551195.140 -22511344.146 10 0 60072 9000.00000 0 -6865785.535 -9008134.848 -22836258.332 10 0 60072 9900.00000 0 -4572160.859 -10636280.335 -22716799.642 10 0 60072 10800.00000 0 -2431738.419 -12394515.254 -22155602.977 10 0 60072 11700.00000 0 -490853.167 -14233159.698 -21163888.723 10 0 60072 12600.00000 0 1214204.444 -16095934.468 -19761220.839 10 0 60072 13500.00000 0 2658448.007 -17922214.925 -17975104.792 10 0 60072 14400.00000 0 3828971.518 -19649479.778 -15840434.587 10 0 60072 15300.00000 0 4725213.419 -21215852.474 -13398800.823 10 0 60072 16200.00000 0 5358700.651 -22562629.517 -10697674.063 10 0 60072 17100.00000 0 5752286.549 -23636691.069 -7789479.787 10 0 60072 18000.00000 0 5938917.163 -24392694.376 -4730583.073 10 0 60072 18900.00000 0 5959979.827 -24794959.877 -1580202.436 10 0 60072 19800.00000 0 5863304.700 -24818972.751 1600726.674 10 0 60072 20700.00000 0 5700903.952 -24452438.551 4750717.481 10 0 60072 21600.00000 0 5526543.707 -23695850.127 7808905.081 10 0 60072 22500.00000 0 5393250.382 -22562542.840 10716205.847 10 0 60072 23400.00000 0 5350855.467 -21078236.068 13416441.965 10 0 60072 24300.00000 0 5443681.049 -19280079.731 15857410.883 10 0 60072 25200.00000 0 5708462.482 -17215244.598 17991880.501 10 0 60072 26100.00000 0 6172594.977 -14939113.603 19778492.207 10 0 60072 27000.00000 0 6852777.661 -12513147.475 21182555.465 10 0 60072 27900.00000 0 7754112.639 -10002511.185 22176719.396 10 0 60072 28800.00000 0 8869698.157 -7473557.576 22741508.742 10 0 60072 29700.00000 0 10180734.927 -4991270.478 22865713.692 10 0 60072 30600.00000 0 11657143.787 -2616771.685 22546625.338 10 0 60072 31500.00000 0 13258671.781 -404993.976 21790110.959 10 0 60072 32400.00000 0 14936443.498 1597383.851 20610525.989 10 0 60072 33300.00000 0 16634895.652 3353654.188 19030462.290 10 0 60072 34200.00000 0 18294016.342 4838378.096 17080335.364 10 0 60072 35100.00000 0 19851796.974 6038208.073 14797816.291 10 0 60072 36000.00000 0 21246794.878 6952200.617 12227117.357 10 0 60072 36900.00000 0 22420699.021 7591604.385 9418143.675 10 0 60072 37800.00000 0 23320789.983 7979131.960 6425526.272 10 0 60072 38700.00000 0 23902189.014 8147745.463 3307555.096 10 0 60072 39600.00000 0 24129799.149 8139007.365 125033.173 10 0 60072 40500.00000 0 23979854.046 8001067.051 -3059924.648 10 0 60072 41400.00000 0 23441006.806 7786369.837 -6185123.279 10 0 60072 42300.00000 0 22514910.703 7549187.590 -9189523.086 10 0 60072 43200.00000 0 21216265.850 7343078.140 -12014453.318 10 0 60072 44100.00000 0 19572329.030 7218383.822 -14604777.270 10 0 60072 45000.00000 0 17621907.296 7219877.807 -16909984.416 10 0 60072 45900.00000 0 15413878.396 7384660.152 -18885186.584 10 0 60072 46800.00000 0 13005301.325 7740394.375 -20491997.794 10 0 60072 47700.00000 0 10459197.818 8303960.157 -21699280.161 10 0 60072 48600.00000 0 7842099.196 9080579.450 -22483741.662 10 0 60072 49500.00000 0 5221462.422 10063452.529 -22830374.975 10 0 60072 50400.00000 0 2663064.083 11233918.468 -22732730.160 10 0 60072 51300.00000 0 228481.092 12562132.066 -22193017.561 10 0 60072 52200.00000 0 -2027237.540 14008227.370 -21222040.741 10 0 60072 53100.00000 0 -4057612.341 15523917.567 -19838962.591 10 0 60072 54000.00000 0 -5826405.562 17054462.981 -18070910.882 10 0 60072 54900.00000 0 -7308857.036 18540923.871 -15952432.422 10 0 60072 55800.00000 0 -8492435.312 19922603.237 -13524807.578 10 0 60072 56700.00000 0 -9377076.105 21139577.470 -10835239.386 10 0 60072 57600.00000 0 -9974901.369 22135209.478 -7935933.414 10 0 60072 58500.00000 0 -10309433.639 22858539.947 -4883086.416 10 0 60072 59400.00000 0 -10414341.067 23266457.981 -1735803.176 10 0 60072 60300.00000 0 -10331767.534 23325561.507 1445038.031 10 0 60072 61200.00000 0 -10110319.108 23013631.002 4597950.118 10 0 60072 62100.00000 0 -9802791.825 22320656.023 7662010.534 10 0 60072 63000.00000 0 -9463736.110 21249372.403 10578021.858 10 0 60072 63900.00000 0 -9146959.519 19815287.968 13289638.530 10 0 60072 64800.00000 0 -8903071.780 18046195.357 15744439.482 10 0 60072 65700.00000 0 -8777174.252 15981191.358 17894927.419 10 0 60072 66600.00000 0 -8806789.975 13669242.110 19699436.769 10 0 60072 67500.00000 0 -9020120.661 11167351.880 21122933.938 10 0 60072 68400.00000 0 -9434703.805 8538409.145 22137695.237 10 0 60072 69300.00000 0 -10056526.898 5848796.965 22723849.713 10 0 60072 70200.00000 0 -10879637.250 3165864.341 22869776.319 10 0 60072 71100.00000 0 -11886265.780 555361.267 22572347.032 10 0 60072 72000.00000 0 -13047462.099 -1921057.814 21837010.034 10 0 60072 72900.00000 0 -14324217.084 -4208159.695 20677709.638 10 0 60072 73800.00000 0 -15669028.710 -6259191.150 19116642.503 10 0 60072 74700.00000 0 -17027848.018 -8037584.929 17183852.581 10 0 60072 75600.00000 0 -18342325.586 -9518241.303 14916670.463 10 0 60072 76500.00000 0 -19552265.408 -10688330.644 12359005.919 10 0 60072 77400.00000 0 -20598183.343 -11547582.262 9560505.785 10 0 60072 78300.00000 0 -21423861.912 -12108046.336 6575592.490 10 0 60072 79200.00000 0 -21978792.367 -12393338.199 3462401.567 10 0 60072 80100.00000 0 -22220398.930 -12437396.576 281639.209 10 0 60072 81000.00000 0 -22115948.830 -12282808.615 -2904616.770 10 0 60072 81900.00000 0 -21644064.836 -11978773.625 -6034147.578 10 0 60072 82800.00000 0 -20795773.920 -11578793.459 -9045829.503 10 0 60072 83700.00000 0 -19575045.764 -11138189.602 -11880848.999 10 0 60072 84600.00000 0 -17998796.992 -10711554.722 -14483870.778 10 0 60072 85500.00000 0 -16096360.267 -10350249.193 -16804134.045 10 0 60073 0.00000 0 -13908440.919 -10100051.004 -18796453.705 10 0 60073 900.00000 0 -11485604.387 -9999060.237 -20422107.006 10 0 60073 1800.00000 0 -8886362.122 -10075948.323 -21649585.304 10 0 60073 2700.00000 0 -6174933.539 -10348626.039 -22455200.122 10 0 60073 3600.00000 0 -3418781.729 -10823386.646 -22823529.824 10 0 60073 4500.00000 0 -686025.686 -11494559.249 -22747700.591 10 0 60073 5400.00000 0 1957162.478 -12344685.661 -22229497.724 10 0 60073 6300.00000 0 4449067.161 -13345211.692 -21279306.918 10 0 60073 7200.00000 0 6734742.245 -14457662.081 -19915888.455 10 0 60073 8100.00000 0 8768032.890 -15635248.117 -18165990.474 10 0 60073 9000.00000 0 10513224.395 -16824839.156 -16063810.291 10 0 60073 9900.00000 0 11946252.285 -17969214.404 -13650315.484 10 0 60073 10800.00000 0 13055426.382 -19009500.124 -10972438.774 10 0 60073 11700.00000 0 13841641.857 -19887690.097 -8082162.836 10 0 60073 12600.00000 0 14318071.591 -20549144.298 -5035513.000 10 0 60073 13500.00000 0 14509355.306 -20944961.840 -1891477.162 10 0 60073 14400.00000 0 14450321.606 -21034129.846 1289126.719 10 0 60073 15300.00000 0 14184298.022 -20785359.452 4444814.298 10 0 60073 16200.00000 0 13761080.741 -20178533.079 7514608.258 10 0 60073 17100.00000 0 13234649.362 -19205703.216 10439200.026 10 0 60073 18000.00000 0 12660722.166 -17871601.291 13162078.659 10 0 60073 18900.00000 0 12094253.649 -16193635.146 15630606.613 10 0 60073 19800.00000 0 11586978.258 -14201374.382 17797023.088 10 0 60073 20700.00000 0 11185102.292 -11935543.596 19619356.888 10 0 60073 21600.00000 0 10927239.859 -9446563.412 21062232.353 10 0 60073 22500.00000 0 10842678.953 -6792697.517 22097553.623 10 0 60073 23400.00000 0 10950050.366 -4037879.985 22705054.377 10 0 60073 24300.00000 0 11256455.920 -1249310.344 22872702.357 10 0 60073 25200.00000 0 11757093.904 1505086.432 22596950.196 10 0 60073 26100.00000 0 12435399.346 4159231.769 21882826.498 10 0 60073 27000.00000 0 13263695.569 6651392.068 20743863.788 10 0 60073 27900.00000 0 14204332.258 8926501.228 19201862.657 10 0 60073 28800.00000 0 15211264.704 10938210.737 17286494.481 10 0 60073 29700.00000 0 16232010.012 12650581.618 15034748.166 10 0 60073 30600.00000 0 17209899.474 14039346.739 12490229.587 10 0 60073 31500.00000 0 18086533.026 15092689.500 9702325.724 10 0 60073 32400.00000 0 18804332.130 15811505.033 6725248.633 10 0 60073 33300.00000 0 19309082.339 16209131.887 3616977.438 10 0 60073 34200.00000 0 19552356.332 16310564.842 438119.326 10 0 60073 35100.00000 0 19493712.629 16151181.998 -2749287.259 10 0 60073 36000.00000 0 19102574.342 15775040.555 -5883002.237 10 0 60073 36900.00000 0 18359705.845 15232814.639 -8901820.257 10 0 60073 37800.00000 0 17258222.504 14579464.378 -11746787.368 10 0 60073 38700.00000 0 15804088.930 13871737.198 -14362371.980 10 0 60073 39600.00000 0 14016083.470 13165609.613 -16697565.176 10 0 60073 40500.00000 0 11925229.938 12513780.144 -18706887.249 10 0 60073 41400.00000 0 9573720.599 11963321.404 -20351279.793 10 0 60073 42300.00000 0 7013376.401 11553592.029 -21598865.475 10 0 60073 43200.00000 0 4303710.022 11314497.306 -22425560.911 10 0 60073 44100.00000 0 1509673.915 11265171.821 -22815531.513 10 0 60073 45000.00000 0 -1300811.517 11413138.838 -22761480.740 10 0 60073 45900.00000 0 -4059445.919 11753980.397 -22264769.727 10 0 60073 46800.00000 0 -6700145.226 12271530.163 -21335366.838 10 0 60073 47700.00000 0 -9161538.649 12938578.867 -19991629.904 10 0 60073 48600.00000 0 -11389263.753 13718060.640 -18259927.178 10 0 60073 49500.00000 0 -13337966.112 14564668.572 -16174105.845 10 0 60073 50400.00000 0 -14972922.732 15426830.183 -13774819.670 10 0 60073 51300.00000 0 -16271224.516 16248958.871 -11108729.722 10 0 60073 52200.00000 0 -17222471.574 16973886.359 -8227594.195 10 0 60073 53100.00000 0 -17828955.343 17545374.122 -5187265.188 10 0 60073 54000.00000 0 -18105322.683 17910598.823 -2046611.696 10 0 60073 54900.00000 0 -18077738.391 18022508.353 1133610.785 10 0 60073 55800.00000 0 -17782582.860 17841950.549 4291922.949 10 0 60073 56700.00000 0 -17264740.623 17339486.339 7367295.171 10 0 60073 57600.00000 0 -16575551.993 16496812.224 10300310.305 10 0 60073 58500.00000 0 -15770513.384 15307732.892 13034294.728 10 0 60073 59400.00000 0 -14906822.051 13778643.247 15516397.204 10 0 60073 60300.00000 0 -14040867.068 11928499.027 17698596.246 10 0 60073 61200.00000 0 -13225770.459 9788275.940 19538617.830 10 0 60073 62100.00000 0 -12509080.293 7399937.901 21000746.939 10 0 60073 63000.00000 0 -11930711.412 4814954.869 22056518.094 10 0 60073 63900.00000 0 -11521219.544 2092429.084 22685271.944 10 0 60073 64800.00000 0 -11300481.079 -703095.415 22874567.071 10 0 60073 65700.00000 0 -11276834.516 -3504051.978 22620438.464 10 0 60073 66600.00000 0 -11446720.793 -6242401.390 21927496.461 10 0 60073 67500.00000 0 -11794839.391 -8852208.979 20808862.639 10 0 60073 68400.00000 0 -12294815.762 -11272143.170 19285941.885 10 0 60073 69300.00000 0 -12910354.271 -13447792.226 17388032.835 10 0 60073 70200.00000 0 -13596830.239 -15333702.650 15151782.017 10 0 60073 71100.00000 0 -14303255.682 -16895053.537 12620490.209 10 0 60073 72000.00000 0 -14974536.907 -18108895.725 9843282.849 10 0 60073 72900.00000 0 -15553928.857 -18964902.461 6874159.481 10 0 60073 73800.00000 0 -15985581.857 -19465598.748 3770940.298 10 0 60073 74700.00000 0 -16217071.593 -19626058.656 594130.603 10 0 60073 75600.00000 0 -16201803.084 -19473082.813 -2594273.697 10 0 60073 76500.00000 0 -15901184.320 -19043890.871 -5732014.660 10 0 60073 77400.00000 0 -15286474.724 -18384385.042 -8757808.914 10 0 60073 78300.00000 0 -14340227.578 -17547059.553 -11612565.851 10 0 60073 79200.00000 0 -13057263.112 -16588646.474 -14240561.374 10 0 60073 80100.00000 0 -11445129.404 -15567599.784 -16590542.159 10 0 60073 81000.00000 0 -9524030.628 -14541526.396 -18616737.245 10 0 60073 81900.00000 0 -7326225.287 -13564674.784 -20279756.116 10 0 60073 82800.00000 0 -4894920.014 -12685588.891 -21547355.288 10 0 60073 83700.00000 0 -2282706.086 -11945027.200 -22395058.637 10 0 60073 84600.00000 0 450394.934 -11374234.814 -22806620.189 10 0 60073 85500.00000 0 3239193.671 -10993640.676 -22774321.602 10 0 60074 0.00000 0 6015808.121 -10812033.346 -22299100.235 10 0 60074 900.00000 0 8712249.448 -10826248.010 -21390506.793 10 0 60074 1800.00000 0 11263007.187 -11021375.753 -20066495.925 10 0 60074 2700.00000 0 13607531.999 -11371483.546 -18353054.773 10 0 60074 3600.00000 0 15692510.422 -11840812.659 -16283678.725 10 0 60074 4500.00000 0 17473840.413 -12385402.977 -13898705.653 10 0 60074 5400.00000 0 18918227.663 -12955073.415 -11244522.485 10 0 60074 6300.00000 0 20004338.972 -13495674.209 -8372660.068 10 0 60074 7200.00000 0 20723467.398 -13951515.959 -5338794.071 10 0 60074 8100.00000 0 21079684.155 -14267873.447 -2201671.179 10 0 60074 9000.00000 0 21089473.313 -14393459.514 978019.166 10 0 60074 9900.00000 0 20780866.466 -14282765.844 4138806.316 10 0 60074 10800.00000 0 20192114.982 -13898173.336 7219611.832 10 0 60074 11700.00000 0 19369956.057 -13211744.300 10160913.303 10 0 60074 12600.00000 0 18367545.193 -12206621.929 12905877.414 10 0 60074 13500.00000 0 17242141.105 -10877978.555 15401441.846 10 0 60074 14400.00000 0 16052638.910 -9233472.528 17599326.614 10 0 60074 15300.00000 0 14857053.543 -7293193.556 19456956.614 10 0 60074 16200.00000 0 13710057.295 -5089097.022 20938278.784 10 0 60074 17100.00000 0 12660673.136 -2663948.488 22014458.914 10 0 60074 18000.00000 0 11750219.351 -69819.516 22664445.091 10 0 60074 18900.00000 0 11010590.886 2633805.735 22875386.828 10 0 60074 19800.00000 0 10462949.357 5382237.610 22642901.185 10 0 60074 20700.00000 0 10116877.178 8108012.955 21971179.611 10 0 60074 21600.00000 0 9970032.425 10743453.495 20872931.808 10 0 60074 22500.00000 0 10008320.521 13223246.110 19369165.751 10 0 60074 23400.00000 0 10206577.382 15486938.757 17488805.888 10 0 60074 24300.00000 0 10529737.176 17481248.382 15268154.708 10 0 60074 25200.00000 0 10934437.131 19162084.123 12750206.032 10 0 60074 26100.00000 0 11370992.855 20496200.143 9983821.714 10 0 60074 27000.00000 0 11785661.232 21462407.491 7022786.587 10 0 60074 27900.00000 0 12123094.869 22052292.528 3924759.562 10 0 60074 28800.00000 0 12328883.084 22270410.297 750141.604 10 0 60074 29700.00000 0 12352069.942 22133943.660 -2439116.425 10 0 60074 30600.00000 0 12147540.212 21671842.107 -5580741.228 10 0 60074 31500.00000 0 11678169.401 20923476.864 -8613373.835 10 0 60074 32400.00000 0 10916643.977 19936870.063 -11477789.272 10 0 60074 33300.00000 0 9846872.184 18766574.384 -14118073.039 10 0 60074 34200.00000 0 8464923.635 17471294.793 -16482729.311 10 0 60074 35100.00000 0 6779456.545 16111355.053 -18525697.568 10 0 60074 36000.00000 0 4811613.718 14746118.040 -20207256.695 10 0 60074 36900.00000 0 2594391.546 13431470.470 -21494798.387 10 0 60074 37800.00000 0 171508.899 12217479.164 -22363454.945 10 0 60074 38700.00000 0 -2404175.913 11146317.921 -22796569.983 10 0 60074 39600.00000 0 -5072632.889 10250551.796 -22786004.118 10 0 60074 40500.00000 0 -7768929.736 9551849.650 -22332271.293 10 0 60074 41400.00000 0 -10425707.604 9060177.121 -21444504.888 10 0 60074 42300.00000 0 -12975759.810 8773501.500 -20140256.133 10 0 60074 43200.00000 0 -15354606.505 8678018.152 -18445130.494 10 0 60074 44100.00000 0 -17502959.097 8748886.244 -16392270.654 10 0 60074 45000.00000 0 -19368973.315 8951440.313 -14021697.372 10 0 60074 45900.00000 0 -20910199.165 9242824.608 -11379521.986 10 0 60074 46800.00000 0 -22095148.929 9573979.877 -8517046.357 10 0 60074 47700.00000 0 -22904420.339 9891898.063 -5489767.966 10 0 60074 48600.00000 0 -23331330.696 10142049.667 -2356309.293 10 0 60074 49500.00000 0 -23382037.704 10270881.800 822708.256 10 0 60074 50400.00000 0 -23075143.976 10228282.410 3985824.797 10 0 60074 51300.00000 0 -22440803.236 9969907.875 7071915.324 10 0 60074 52200.00000 0 -21519366.413 9459277.026 10021354.536 10 0 60074 53100.00000 0 -20359624.470 8669544.382 12777151.908 10 0 60074 54000.00000 0 -19016720.996 7584878.543 15286036.608 10 0 60074 54900.00000 0 -17549820.880 6201387.845 17499472.732 10 0 60074 55800.00000 0 -16019631.196 4527553.754 19374586.630 10 0 60074 56700.00000 0 -14485876.312 2584152.426 20874989.589 10 0 60074 57600.00000 0 -13004831.077 403665.574 21971480.861 10 0 60074 58500.00000 0 -11627013.769 -1970797.480 22642617.896 10 0 60074 59400.00000 0 -10395134.078 -4487024.738 22875142.744 10 0 60074 60300.00000 0 -9342381.299 -7085613.297 22664255.809 10 0 60074 61200.00000 0 -8491124.350 -9702191.550 22013730.544 10 0 60074 62100.00000 0 -7852078.543 -12269862.276 20935865.299 10 0 60074 63000.00000 0 -7423975.123 -14721767.253 19451271.260 10 0 60074 63900.00000 0 -7193748.872 -16993668.133 17588498.414 10 0 60074 64800.00000 0 -7137237.454 -19026436.721 15383504.544 10 0 60074 65700.00000 0 -7220364.610 -20768350.615 12878975.467 10 0 60074 66600.00000 0 -7400758.478 -22177097.348 10123508.044 10 0 60074 67500.00000 0 -7629737.350 -23221401.675 7170670.661 10 0 60074 68400.00000 0 -7854578.850 -23882206.024 4077958.918 10 0 60074 69300.00000 0 -8020975.639 -24153352.710 905667.141 10 0 60074 70200.00000 0 -8075572.014 -24041737.701 -2284301.407 10 0 60074 71100.00000 0 -7968471.670 -23566928.449 -5429660.854 10 0 60074 72000.00000 0 -7655607.620 -22760261.517 -8468979.640 10 0 60074 72900.00000 0 -7100871.024 -21663458.522 -11342901.604 10 0 60074 73800.00000 0 -6277905.979 -20326819.865 -13995325.146 10 0 60074 74700.00000 0 -5171491.910 -18807074.172 -16374515.273 10 0 60074 75600.00000 0 -3778453.269 -17164976.174 -18434125.169 10 0 60074 76500.00000 0 -2108056.924 -15462756.356 -20134106.181 10 0 60074 77400.00000 0 -181879.972 -13761531.679 -21441487.935 10 0 60074 78300.00000 0 1966846.419 -12118787.721 -22331013.501 10 0 60074 79200.00000 0 4294389.021 -10586038.740 -22785617.961 10 0 60074 80100.00000 0 6748111.283 -9206763.871 -22796742.264 10 0 60074 81000.00000 0 9268451.012 -8014705.057 -22364477.866 10 0 60074 81900.00000 0 11791193.565 -7032596.367 -21497541.127 10 0 60074 82800.00000 0 14249945.215 -6271375.589 -20213079.793 10 0 60074 83700.00000 0 16578703.540 -5729908.314 -18536317.114 10 0 60074 84600.00000 0 18714418.217 -5395233.028 -16500042.054 10 0 60074 85500.00000 0 20599436.565 -5243313.980 -14143956.777 99